Weather History for Atlanta Fulton, GA

Change the Weather History Date:

Thursday, February 28, 2013

  Actual Average Record
Temperature  
Mean Temperature 42 °F 49 °F  
Max Temperature 46 °F 61 °F 75 °F (2011)
Min Temperature 37 °F 38 °F 19 °F (2002)
Degree Days  
Heating Degree Days 24 16  
Month to date heating degree days 525  
Since 1 July heating degree days 2340  
Moisture  
Dew Point 29 °F    
Average Humidity 60    
Maximum Humidity 79    
Minimum Humidity 44    
Precipitation  
Precipitation 0.00 in 0.20 in 1.51 in (1987)
Month to date precipitation 4.90  
Year to date precipitation 9.17  
Sea Level Pressure  
Sea Level Pressure 29.93 in    
Wind  
Wind Speed 10 mph (WNW)    
Max Wind Speed 20 mph    
Max Gust Speed 24 mph    
Visibility 10 miles    
Events      
T = Trace of Precipitation, MM = Missing Value Source: NWS Daily Summary

Daily Weather History Graph

Daily Weather History Graph

Search for Another Location

Airport:

Trip Planner

Search our weather history database for the weather conditions in past years. The results will help you decide how hot, cold, wet, or windy it might be!

Date:

Astronomy

Feb. 28, 2013 Rise Set
Actual Time 7:07 AM EST 6:34 PM EST
Civil Twilight 6:42 AM EST 6:59 PM EST
Nautical Twilight 6:13 AM EST 7:28 PM EST
Astronomical Twilight 5:44 AM EST 7:56 PM EST
Moon 9:47 PM EST 8:27 AM EST
Length of Visible Light 12h 16m
Length of Day
11h 26m
Waning Gibbous, 91% of the Moon is Illuminated
Feb 28
Waning Gibbous
Mar 4
Last Quarter
Mar 11
New
Mar 19
First Quarter
Mar 27
Full

Hourly Weather History & Observations

Time (EST) Temp. Windchill Dew Point Humidity Pressure Visibility Wind Dir Wind Speed Gust Speed Precip Events Conditions
12:53 AM 46.4 °F 41.5 °F 33.8 °F 62% 29.88 in 10.0 mi WNW 10.4 mph - N/A   Clear
1:53 AM 44.1 °F 40.8 °F 30.0 °F 58% 29.88 in 10.0 mi West 5.8 mph - N/A   Clear
2:53 AM 43.0 °F 37.7 °F 33.1 °F 68% 29.88 in 10.0 mi WNW 9.2 mph - N/A   Partly Cloudy
3:53 AM 41.0 °F 34.3 °F 32.0 °F 70% 29.88 in 10.0 mi WNW 11.5 mph - N/A   Clear
4:53 AM 39.9 °F 35.1 °F 32.0 °F 73% 29.88 in 10.0 mi West 6.9 mph - N/A   Clear
5:53 AM 37.9 °F 34.4 °F 30.9 °F 76% 29.88 in 10.0 mi WSW 4.6 mph - N/A   Clear
6:53 AM 37.0 °F 32.4 °F 30.9 °F 79% 29.89 in 10.0 mi SW 5.8 mph - N/A   Clear
7:53 AM 37.0 °F 31.0 °F 30.9 °F 79% 29.91 in 10.0 mi SW 8.1 mph - N/A   Clear
8:53 AM 41.0 °F 35.2 °F 30.9 °F 67% 29.91 in 10.0 mi West 9.2 mph - N/A   Clear
9:53 AM 42.1 °F 36.1 °F 32.0 °F 67% 29.91 in 10.0 mi WNW 10.4 mph 20.7 mph N/A   Mostly Cloudy
10:50 AM 44.6 °F 38.8 °F 30.2 °F 57% 29.92 in 10.0 mi NW 11.5 mph - N/A   Overcast
10:53 AM 44.1 °F 37.7 °F 30.0 °F 58% 29.92 in 10.0 mi WNW 12.7 mph 20.7 mph N/A   Overcast
11:53 AM 44.1 °F 37.4 °F 28.9 °F 55% 29.94 in 10.0 mi WNW 13.8 mph 19.6 mph N/A   Mostly Cloudy
12:53 PM 46.0 °F 39.9 °F 28.0 °F 50% 29.94 in 10.0 mi West 13.8 mph 23.0 mph N/A   Overcast
1:53 PM 46.9 °F - 26.1 °F 44% 29.92 in 10.0 mi WNW 17.3 mph 23.0 mph N/A   Scattered Clouds
2:53 PM 46.9 °F - 26.1 °F 44% 29.93 in 10.0 mi West 19.6 mph 23.0 mph N/A   Mostly Cloudy
3:53 PM 46.4 °F 40.1 °F 26.6 °F 46% 29.94 in 10.0 mi NW 15.0 mph 24.2 mph N/A   Overcast
4:53 PM 44.1 °F 38.1 °F 25.0 °F 47% 29.96 in 10.0 mi WNW 11.5 mph 24.2 mph N/A   Overcast
5:53 PM 42.1 °F 36.1 °F 25.0 °F 51% 29.98 in 10.0 mi WNW 10.4 mph 21.9 mph N/A   Overcast
6:53 PM 41.0 °F 34.3 °F 26.1 °F 55% 29.99 in 10.0 mi WNW 11.5 mph - N/A   Overcast
7:53 PM 39.9 °F 33.4 °F 25.0 °F 55% 30.00 in 10.0 mi NW 10.4 mph 19.6 mph N/A   Overcast
8:53 PM 39.0 °F 32.8 °F 25.0 °F 57% 30.01 in 10.0 mi NNW 9.2 mph - N/A   Overcast
9:53 PM 37.9 °F 30.0 °F 25.0 °F 60% 30.02 in 10.0 mi NW 12.7 mph - N/A   Overcast
10:53 PM 37.9 °F 30.9 °F 26.1 °F 62% 30.01 in 10.0 mi NW 10.4 mph - N/A   Overcast
11:53 PM 37.9 °F 30.5 °F 25.0 °F 60% 29.99 in 10.0 mi NNW 11.5 mph 16.1 mph N/A   Overcast